Information on these data can be found in provided Readme document
Contact Info: Zachary Fasnacht (zachary.fasnacht@ssaihq.com); Nickolay Krotkov (nickolay.a.krotkov@nasa.gov); Lok Lamsal (lok.lamsal@nasa.gov)

FillValue: -999.
ScaleFactor: 1e15
Units: molecules/cm^2

Date(yyyy-mm-dd),City,Country,LonCenter,LatCenter,BoundingCoordinates,Median,Q1,Q3,Mean,Baseline_Median,Baseline_Q1,Baseline_Q3,Baseline_Mean,NumGoodSamples,NumTotalSamples
2015-01-01,Thimphu,Bhutan,89.6339,27.4712,[89.1339 26.9712 90.1339 27.9712],0.885,0.345,2.171,1.167,0.642,0.087,1.394,0.736,149.0,547.0
2015-01-02,Thimphu,Bhutan,89.6339,27.4712,[89.1339 26.9712 90.1339 27.9712],0.768,0.313,1.832,1.091,0.595,0.038,1.356,0.727,190.0,543.0
2015-01-03,Thimphu,Bhutan,89.6339,27.4712,[89.1339 26.9712 90.1339 27.9712],0.876,0.288,1.907,1.173,0.613,0.022,1.314,0.704,171.0,560.0
2015-01-04,Thimphu,Bhutan,89.6339,27.4712,[89.1339 26.9712 90.1339 27.9712],0.756,0.283,1.842,1.097,0.585,0.05,1.324,0.716,170.0,552.0
2015-01-05,Thimphu,Bhutan,89.6339,27.4712,[89.1339 26.9712 90.1339 27.9712],0.685,0.232,1.831,1.003,0.562,0.098,1.295,0.71,197.0,561.0
2015-01-06,Thimphu,Bhutan,89.6339,27.4712,[89.1339 26.9712 90.1339 27.9712],0.685,0.232,1.644,0.991,0.506,0.115,1.241,0.677,172.0,563.0
2015-01-07,Thimphu,Bhutan,89.6339,27.4712,[89.1339 26.9712 90.1339 27.9712],0.685,0.232,1.644,0.969,0.555,0.106,1.245,0.681,199.0,557.0
2015-01-08,Thimphu,Bhutan,89.6339,27.4712,[89.1339 26.9712 90.1339 27.9712],0.685,0.211,1.644,0.95,0.55,0.094,1.231,0.651,170.0,560.0
2015-01-09,Thimphu,Bhutan,89.6339,27.4712,[89.1339 26.9712 90.1339 27.9712],0.752,0.232,1.703,0.977,0.533,0.055,1.219,0.654,199.0,546.0
2015-01-10,Thimphu,Bhutan,89.6339,27.4712,[89.1339 26.9712 90.1339 27.9712],0.58,0.15,1.51,0.771,0.508,0.04,1.19,0.609,178.0,504.0
2015-01-11,Thimphu,Bhutan,89.6339,27.4712,[89.1339 26.9712 90.1339 27.9712],0.561,0.164,1.398,0.748,0.505,0.023,1.182,0.594,200.0,501.0
2015-01-12,Thimphu,Bhutan,89.6339,27.4712,[89.1339 26.9712 90.1339 27.9712],0.62,0.181,1.498,0.779,0.509,0.021,1.22,0.601,231.0,526.0
2015-01-13,Thimphu,Bhutan,89.6339,27.4712,[89.1339 26.9712 90.1339 27.9712],0.62,0.201,1.492,0.793,0.511,0.013,1.209,0.599,223.0,514.0
2015-01-14,Thimphu,Bhutan,89.6339,27.4712,[89.1339 26.9712 90.1339 27.9712],0.632,0.211,1.492,0.798,0.519,0.025,1.242,0.619,251.0,510.0
2015-01-15,Thimphu,Bhutan,89.6339,27.4712,[89.1339 26.9712 90.1339 27.9712],0.656,0.232,1.492,0.807,0.554,0.088,1.273,0.653,248.0,520.0
2015-01-16,Thimphu,Bhutan,89.6339,27.4712,[89.1339 26.9712 90.1339 27.9712],0.58,0.211,1.492,0.776,0.564,0.102,1.281,0.671,262.0,498.0
2015-01-17,Thimphu,Bhutan,89.6339,27.4712,[89.1339 26.9712 90.1339 27.9712],0.58,0.134,1.51,0.741,0.551,0.078,1.276,0.644,221.0,500.0
2015-01-18,Thimphu,Bhutan,89.6339,27.4712,[89.1339 26.9712 90.1339 27.9712],0.556,0.164,1.444,0.741,0.537,0.087,1.272,0.666,239.0,496.0
2015-01-19,Thimphu,Bhutan,89.6339,27.4712,[89.1339 26.9712 90.1339 27.9712],0.569,0.225,1.555,0.769,0.531,0.104,1.3,0.663,212.0,512.0
2015-01-20,Thimphu,Bhutan,89.6339,27.4712,[89.1339 26.9712 90.1339 27.9712],0.561,0.232,1.51,0.796,0.516,0.101,1.302,0.668,206.0,504.0
2015-01-21,Thimphu,Bhutan,89.6339,27.4712,[89.1339 26.9712 90.1339 27.9712],0.56,0.201,1.492,0.743,0.533,0.115,1.314,0.672,234.0,512.0
2015-01-22,Thimphu,Bhutan,89.6339,27.4712,[89.1339 26.9712 90.1339 27.9712],0.56,0.226,1.473,0.74,0.559,0.112,1.345,0.691,207.0,514.0
2015-01-23,Thimphu,Bhutan,89.6339,27.4712,[89.1339 26.9712 90.1339 27.9712],0.546,0.186,1.43,0.722,0.52,0.117,1.316,0.676,226.0,505.0
2015-01-24,Thimphu,Bhutan,89.6339,27.4712,[89.1339 26.9712 90.1339 27.9712],0.486,0.164,1.353,0.652,0.474,0.083,1.257,0.624,197.0,510.0
2015-01-25,Thimphu,Bhutan,89.6339,27.4712,[89.1339 26.9712 90.1339 27.9712],0.468,0.078,1.351,0.627,0.429,0.07,1.239,0.617,218.0,546.0
2015-01-26,Thimphu,Bhutan,89.6339,27.4712,[89.1339 26.9712 90.1339 27.9712],0.453,0.032,1.351,0.621,0.389,0.065,1.212,0.595,189.0,553.0
2015-01-27,Thimphu,Bhutan,89.6339,27.4712,[89.1339 26.9712 90.1339 27.9712],0.396,-0.115,0.912,0.408,0.415,0.038,1.11,0.556,197.0,550.0
2015-01-28,Thimphu,Bhutan,89.6339,27.4712,[89.1339 26.9712 90.1339 27.9712],0.369,-0.211,0.787,0.343,0.402,-0.019,0.998,0.507,218.0,574.0
2015-01-29,Thimphu,Bhutan,89.6339,27.4712,[89.1339 26.9712 90.1339 27.9712],0.353,-0.261,0.692,0.31,0.399,-0.045,0.98,0.493,195.0,561.0
2015-01-30,Thimphu,Bhutan,89.6339,27.4712,[89.1339 26.9712 90.1339 27.9712],0.357,-0.19,0.787,0.342,0.394,-0.032,0.988,0.493,213.0,560.0
2015-01-31,Thimphu,Bhutan,89.6339,27.4712,[89.1339 26.9712 90.1339 27.9712],0.374,-0.15,0.787,0.347,0.345,-0.057,0.87,0.453,199.0,567.0
2015-02-01,Thimphu,Bhutan,89.6339,27.4712,[89.1339 26.9712 90.1339 27.9712],0.353,-0.263,0.716,0.3,0.358,-0.102,0.799,0.424,211.0,547.0
2015-02-02,Thimphu,Bhutan,89.6339,27.4712,[89.1339 26.9712 90.1339 27.9712],0.253,-0.335,0.671,0.238,0.34,-0.114,0.819,0.429,193.0,550.0
2015-02-03,Thimphu,Bhutan,89.6339,27.4712,[89.1339 26.9712 90.1339 27.9712],0.232,-0.335,0.663,0.218,0.33,-0.135,0.819,0.42,213.0,546.0
2015-02-04,Thimphu,Bhutan,89.6339,27.4712,[89.1339 26.9712 90.1339 27.9712],0.217,-0.335,0.661,0.189,0.339,-0.111,0.807,0.424,192.0,564.0
2015-02-05,Thimphu,Bhutan,89.6339,27.4712,[89.1339 26.9712 90.1339 27.9712],0.217,-0.335,0.652,0.201,0.348,-0.124,0.876,0.447,164.0,555.0
2015-02-06,Thimphu,Bhutan,89.6339,27.4712,[89.1339 26.9712 90.1339 27.9712],0.204,-0.335,0.646,0.201,0.322,-0.135,0.836,0.416,175.0,561.0
2015-02-07,Thimphu,Bhutan,89.6339,27.4712,[89.1339 26.9712 90.1339 27.9712],0.185,-0.335,0.545,0.18,0.359,-0.124,0.887,0.454,156.0,562.0
2015-02-08,Thimphu,Bhutan,89.6339,27.4712,[89.1339 26.9712 90.1339 27.9712],0.204,-0.303,0.508,0.177,0.393,-0.092,0.948,0.474,167.0,553.0
2015-02-09,Thimphu,Bhutan,89.6339,27.4712,[89.1339 26.9712 90.1339 27.9712],0.129,-0.316,0.462,0.126,0.414,-0.091,0.987,0.467,146.0,557.0
2015-02-10,Thimphu,Bhutan,89.6339,27.4712,[89.1339 26.9712 90.1339 27.9712],0.185,-0.303,0.499,0.176,0.434,-0.083,1.053,0.511,153.0,544.0
2015-02-11,Thimphu,Bhutan,89.6339,27.4712,[89.1339 26.9712 90.1339 27.9712],0.129,-0.194,0.612,0.282,0.449,-0.067,1.095,0.533,114.0,503.0
2015-02-12,Thimphu,Bhutan,89.6339,27.4712,[89.1339 26.9712 90.1339 27.9712],0.195,-0.122,0.506,0.287,0.445,-0.057,1.063,0.527,93.0,500.0
2015-02-13,Thimphu,Bhutan,89.6339,27.4712,[89.1339 26.9712 90.1339 27.9712],0.131,-0.144,0.506,0.266,0.428,-0.069,1.029,0.515,107.0,525.0
2015-02-14,Thimphu,Bhutan,89.6339,27.4712,[89.1339 26.9712 90.1339 27.9712],0.118,-0.194,0.403,0.171,0.401,-0.074,1.004,0.486,89.0,513.0
2015-02-15,Thimphu,Bhutan,89.6339,27.4712,[89.1339 26.9712 90.1339 27.9712],0.232,-0.144,0.549,0.301,0.397,-0.053,0.982,0.471,111.0,514.0
2015-02-16,Thimphu,Bhutan,89.6339,27.4712,[89.1339 26.9712 90.1339 27.9712],0.251,-0.026,0.634,0.421,0.449,-0.012,0.985,0.517,99.0,524.0
2015-02-17,Thimphu,Bhutan,89.6339,27.4712,[89.1339 26.9712 90.1339 27.9712],0.21,-0.089,0.613,0.341,0.381,-0.014,0.931,0.468,111.0,501.0
2015-02-18,Thimphu,Bhutan,89.6339,27.4712,[89.1339 26.9712 90.1339 27.9712],0.265,0.04,0.683,0.445,0.38,-0.008,0.918,0.469,91.0,503.0
2015-02-19,Thimphu,Bhutan,89.6339,27.4712,[89.1339 26.9712 90.1339 27.9712],0.287,0.04,0.976,0.47,0.356,-0.019,0.99,0.476,95.0,497.0
2015-02-20,Thimphu,Bhutan,89.6339,27.4712,[89.1339 26.9712 90.1339 27.9712],0.287,0.04,0.976,0.47,0.397,0.014,1.003,0.537,95.0,515.0
2015-02-21,Thimphu,Bhutan,89.6339,27.4712,[89.1339 26.9712 90.1339 27.9712],0.36,0.097,1.056,0.499,0.405,0.02,1.066,0.575,102.0,507.0
2015-02-22,Thimphu,Bhutan,89.6339,27.4712,[89.1339 26.9712 90.1339 27.9712],0.36,0.097,1.056,0.479,0.419,0.009,1.045,0.579,106.0,514.0
2015-02-23,Thimphu,Bhutan,89.6339,27.4712,[89.1339 26.9712 90.1339 27.9712],0.399,0.118,1.244,0.517,0.372,0.0,0.961,0.553,95.0,516.0
2015-02-24,Thimphu,Bhutan,89.6339,27.4712,[89.1339 26.9712 90.1339 27.9712],0.399,0.118,1.244,0.499,0.356,0.008,0.988,0.557,103.0,507.0
2015-02-25,Thimphu,Bhutan,89.6339,27.4712,[89.1339 26.9712 90.1339 27.9712],0.399,0.118,1.056,0.427,0.337,0.004,0.879,0.499,96.0,510.0
2015-02-26,Thimphu,Bhutan,89.6339,27.4712,[89.1339 26.9712 90.1339 27.9712],0.418,0.118,1.306,0.609,0.351,0.023,0.927,0.552,111.0,546.0
2015-02-27,Thimphu,Bhutan,89.6339,27.4712,[89.1339 26.9712 90.1339 27.9712],0.491,0.112,1.33,0.649,0.346,0.007,0.944,0.573,102.0,555.0
2015-02-28,Thimphu,Bhutan,89.6339,27.4712,[89.1339 26.9712 90.1339 27.9712],0.36,-0.082,1.147,0.522,0.31,-0.01,0.988,0.569,98.0,555.0
2015-03-01,Thimphu,Bhutan,89.6339,27.4712,[89.1339 26.9712 90.1339 27.9712],0.36,-0.082,1.244,0.515,0.367,-0.008,1.027,0.591,123.0,577.0
2015-03-02,Thimphu,Bhutan,89.6339,27.4712,[89.1339 26.9712 90.1339 27.9712],0.294,-0.129,1.265,0.448,0.378,0.033,1.072,0.607,106.0,564.0
2015-03-03,Thimphu,Bhutan,89.6339,27.4712,[89.1339 26.9712 90.1339 27.9712],0.35,-0.129,1.291,0.571,0.383,0.018,1.045,0.626,133.0,560.0
2015-03-04,Thimphu,Bhutan,89.6339,27.4712,[89.1339 26.9712 90.1339 27.9712],0.399,-0.129,1.381,0.664,0.408,0.046,1.147,0.7,121.0,570.0
2015-03-05,Thimphu,Bhutan,89.6339,27.4712,[89.1339 26.9712 90.1339 27.9712],0.391,-0.13,1.381,0.613,0.415,0.031,1.11,0.671,140.0,548.0
2015-03-06,Thimphu,Bhutan,89.6339,27.4712,[89.1339 26.9712 90.1339 27.9712],0.35,-0.196,1.381,0.604,0.394,0.008,1.143,0.673,136.0,552.0
2015-03-07,Thimphu,Bhutan,89.6339,27.4712,[89.1339 26.9712 90.1339 27.9712],0.35,-0.129,1.265,0.576,0.337,0.014,0.94,0.582,146.0,546.0
2015-03-08,Thimphu,Bhutan,89.6339,27.4712,[89.1339 26.9712 90.1339 27.9712],0.325,-0.218,1.291,0.586,0.33,-0.031,0.92,0.558,128.0,565.0
2015-03-09,Thimphu,Bhutan,89.6339,27.4712,[89.1339 26.9712 90.1339 27.9712],0.335,-0.196,1.291,0.602,0.329,-0.031,0.917,0.546,125.0,557.0
2015-03-10,Thimphu,Bhutan,89.6339,27.4712,[89.1339 26.9712 90.1339 27.9712],0.35,-0.145,1.385,0.664,0.349,0.035,0.946,0.592,154.0,563.0
2015-03-11,Thimphu,Bhutan,89.6339,27.4712,[89.1339 26.9712 90.1339 27.9712],0.35,-0.168,1.431,0.682,0.38,0.04,1.002,0.646,146.0,564.0
2015-03-12,Thimphu,Bhutan,89.6339,27.4712,[89.1339 26.9712 90.1339 27.9712],0.371,-0.115,1.381,0.677,0.392,0.059,0.968,0.632,170.0,556.0
2015-03-13,Thimphu,Bhutan,89.6339,27.4712,[89.1339 26.9712 90.1339 27.9712],0.325,-0.129,1.128,0.573,0.401,0.063,0.946,0.616,155.0,559.0
2015-03-14,Thimphu,Bhutan,89.6339,27.4712,[89.1339 26.9712 90.1339 27.9712],0.294,-0.129,1.095,0.57,0.383,0.061,0.964,0.592,165.0,544.0
2015-03-15,Thimphu,Bhutan,89.6339,27.4712,[89.1339 26.9712 90.1339 27.9712],0.38,-0.09,1.381,0.683,0.384,0.058,0.963,0.587,150.0,501.0
2015-03-16,Thimphu,Bhutan,89.6339,27.4712,[89.1339 26.9712 90.1339 27.9712],0.371,0.012,1.265,0.698,0.379,0.08,0.905,0.583,129.0,498.0
2015-03-17,Thimphu,Bhutan,89.6339,27.4712,[89.1339 26.9712 90.1339 27.9712],0.371,0.061,1.176,0.724,0.371,0.088,0.902,0.594,132.0,521.0
2015-03-18,Thimphu,Bhutan,89.6339,27.4712,[89.1339 26.9712 90.1339 27.9712],0.338,0.073,0.922,0.604,0.364,0.099,0.834,0.564,108.0,512.0
2015-03-19,Thimphu,Bhutan,89.6339,27.4712,[89.1339 26.9712 90.1339 27.9712],0.305,-0.013,0.808,0.564,0.364,0.089,0.84,0.558,116.0,508.0
2015-03-20,Thimphu,Bhutan,89.6339,27.4712,[89.1339 26.9712 90.1339 27.9712],0.338,0.075,0.808,0.627,0.382,0.128,0.873,0.574,97.0,517.0
2015-03-21,Thimphu,Bhutan,89.6339,27.4712,[89.1339 26.9712 90.1339 27.9712],0.292,-0.069,0.757,0.544,0.374,0.1,0.853,0.55,107.0,492.0
2015-03-22,Thimphu,Bhutan,89.6339,27.4712,[89.1339 26.9712 90.1339 27.9712],0.292,-0.115,0.93,0.589,0.348,0.082,0.833,0.543,97.0,497.0
2015-03-23,Thimphu,Bhutan,89.6339,27.4712,[89.1339 26.9712 90.1339 27.9712],0.292,-0.115,0.93,0.579,0.376,0.086,0.853,0.564,98.0,491.0
2015-03-24,Thimphu,Bhutan,89.6339,27.4712,[89.1339 26.9712 90.1339 27.9712],0.258,-0.115,0.93,0.579,0.355,0.065,0.857,0.54,101.0,508.0
2015-03-25,Thimphu,Bhutan,89.6339,27.4712,[89.1339 26.9712 90.1339 27.9712],0.223,-0.081,0.66,0.385,0.348,0.042,0.894,0.526,79.0,499.0
2015-03-26,Thimphu,Bhutan,89.6339,27.4712,[89.1339 26.9712 90.1339 27.9712],0.174,-0.081,0.66,0.376,0.29,0.037,0.868,0.47,81.0,505.0
2015-03-27,Thimphu,Bhutan,89.6339,27.4712,[89.1339 26.9712 90.1339 27.9712],0.052,-0.143,0.332,0.246,0.303,0.021,0.832,0.475,62.0,508.0
2015-03-28,Thimphu,Bhutan,89.6339,27.4712,[89.1339 26.9712 90.1339 27.9712],0.223,-0.056,1.293,0.699,0.292,0.03,0.917,0.499,80.0,499.0
2015-03-29,Thimphu,Bhutan,89.6339,27.4712,[89.1339 26.9712 90.1339 27.9712],0.23,-0.042,1.399,0.722,0.293,0.041,0.912,0.502,71.0,507.0
2015-03-30,Thimphu,Bhutan,89.6339,27.4712,[89.1339 26.9712 90.1339 27.9712],0.322,-0.018,1.19,0.731,0.326,0.049,0.935,0.531,82.0,540.0
2015-03-31,Thimphu,Bhutan,89.6339,27.4712,[89.1339 26.9712 90.1339 27.9712],0.329,-0.018,1.279,0.753,0.321,0.044,0.897,0.522,78.0,548.0
2015-04-01,Thimphu,Bhutan,89.6339,27.4712,[89.1339 26.9712 90.1339 27.9712],0.223,-0.069,1.007,0.615,0.295,0.008,0.808,0.515,81.0,544.0
2015-04-02,Thimphu,Bhutan,89.6339,27.4712,[89.1339 26.9712 90.1339 27.9712],0.184,-0.081,1.007,0.597,0.306,0.007,0.88,0.543,90.0,565.0
2015-04-03,Thimphu,Bhutan,89.6339,27.4712,[89.1339 26.9712 90.1339 27.9712],0.223,-0.07,1.027,0.65,0.297,0.025,0.785,0.52,82.0,558.0
2015-04-04,Thimphu,Bhutan,89.6339,27.4712,[89.1339 26.9712 90.1339 27.9712],0.184,-0.075,1.007,0.612,0.345,0.053,1.037,0.624,88.0,558.0
2015-04-05,Thimphu,Bhutan,89.6339,27.4712,[89.1339 26.9712 90.1339 27.9712],0.223,-0.033,1.247,0.708,0.415,0.057,1.092,0.648,80.0,569.0
2015-04-06,Thimphu,Bhutan,89.6339,27.4712,[89.1339 26.9712 90.1339 27.9712],0.159,-0.07,1.027,0.639,0.448,0.076,1.122,0.712,85.0,543.0
2015-04-07,Thimphu,Bhutan,89.6339,27.4712,[89.1339 26.9712 90.1339 27.9712],0.184,-0.07,1.027,0.65,0.465,0.107,1.119,0.7,84.0,546.0
2015-04-08,Thimphu,Bhutan,89.6339,27.4712,[89.1339 26.9712 90.1339 27.9712],0.159,-0.059,1.027,0.63,0.494,0.124,1.107,0.708,86.0,543.0
2015-04-09,Thimphu,Bhutan,89.6339,27.4712,[89.1339 26.9712 90.1339 27.9712],0.184,-0.07,1.143,0.701,0.475,0.064,1.13,0.67,83.0,561.0
2015-04-10,Thimphu,Bhutan,89.6339,27.4712,[89.1339 26.9712 90.1339 27.9712],0.202,-0.07,1.027,0.684,0.501,0.069,1.093,0.68,86.0,553.0
2015-04-11,Thimphu,Bhutan,89.6339,27.4712,[89.1339 26.9712 90.1339 27.9712],0.275,-0.059,1.035,0.698,0.5,0.034,1.113,0.678,86.0,558.0
2015-04-12,Thimphu,Bhutan,89.6339,27.4712,[89.1339 26.9712 90.1339 27.9712],0.202,-0.07,0.975,0.611,0.534,0.079,1.156,0.678,83.0,561.0
2015-04-13,Thimphu,Bhutan,89.6339,27.4712,[89.1339 26.9712 90.1339 27.9712],0.254,-0.055,0.947,0.593,0.498,0.108,1.158,0.664,91.0,548.0
2015-04-14,Thimphu,Bhutan,89.6339,27.4712,[89.1339 26.9712 90.1339 27.9712],0.177,-0.1,0.495,0.543,0.514,0.115,1.093,0.662,81.0,555.0
2015-04-15,Thimphu,Bhutan,89.6339,27.4712,[89.1339 26.9712 90.1339 27.9712],0.159,-0.185,0.539,0.487,0.507,0.106,1.121,0.663,88.0,540.0
2015-04-16,Thimphu,Bhutan,89.6339,27.4712,[89.1339 26.9712 90.1339 27.9712],0.241,-0.11,0.593,0.595,0.491,0.096,1.022,0.639,77.0,501.0
2015-04-17,Thimphu,Bhutan,89.6339,27.4712,[89.1339 26.9712 90.1339 27.9712],0.177,-0.037,0.556,0.557,0.46,0.111,0.978,0.618,73.0,500.0
2015-04-18,Thimphu,Bhutan,89.6339,27.4712,[89.1339 26.9712 90.1339 27.9712],0.177,-0.037,0.539,0.532,0.447,0.092,1.055,0.666,81.0,521.0
2015-04-19,Thimphu,Bhutan,89.6339,27.4712,[89.1339 26.9712 90.1339 27.9712],0.222,0.013,0.585,0.576,0.354,0.023,0.899,0.567,76.0,506.0
2015-04-20,Thimphu,Bhutan,89.6339,27.4712,[89.1339 26.9712 90.1339 27.9712],0.257,0.052,0.585,0.561,0.436,0.085,0.852,0.601,85.0,507.0
2015-04-21,Thimphu,Bhutan,89.6339,27.4712,[89.1339 26.9712 90.1339 27.9712],0.298,0.133,0.595,0.629,0.391,0.056,0.828,0.551,80.0,520.0
2015-04-22,Thimphu,Bhutan,89.6339,27.4712,[89.1339 26.9712 90.1339 27.9712],0.263,0.06,0.556,0.552,0.369,0.034,0.813,0.534,88.0,499.0
2015-04-23,Thimphu,Bhutan,89.6339,27.4712,[89.1339 26.9712 90.1339 27.9712],0.269,0.059,0.585,0.573,0.389,0.033,0.833,0.531,82.0,499.0
2015-04-24,Thimphu,Bhutan,89.6339,27.4712,[89.1339 26.9712 90.1339 27.9712],0.2,-0.026,0.539,0.475,0.393,0.062,0.814,0.547,85.0,495.0
2015-04-25,Thimphu,Bhutan,89.6339,27.4712,[89.1339 26.9712 90.1339 27.9712],0.2,-0.026,0.55,0.493,0.393,0.077,0.818,0.549,83.0,514.0
2015-04-26,Thimphu,Bhutan,89.6339,27.4712,[89.1339 26.9712 90.1339 27.9712],0.167,-0.055,0.542,0.483,0.408,0.096,0.813,0.554,81.0,507.0
2015-04-27,Thimphu,Bhutan,89.6339,27.4712,[89.1339 26.9712 90.1339 27.9712],0.076,-0.109,0.326,0.101,0.381,0.106,0.759,0.49,80.0,513.0
2015-04-28,Thimphu,Bhutan,89.6339,27.4712,[89.1339 26.9712 90.1339 27.9712],0.046,-0.114,0.324,0.082,0.447,0.102,0.798,0.509,72.0,513.0
2015-04-29,Thimphu,Bhutan,89.6339,27.4712,[89.1339 26.9712 90.1339 27.9712],0.06,-0.109,0.339,0.112,0.452,0.084,0.799,0.502,75.0,503.0
2015-04-30,Thimphu,Bhutan,89.6339,27.4712,[89.1339 26.9712 90.1339 27.9712],0.076,-0.079,0.326,0.122,0.451,0.096,0.767,0.504,68.0,508.0
2015-05-01,Thimphu,Bhutan,89.6339,27.4712,[89.1339 26.9712 90.1339 27.9712],0.086,-0.036,0.484,0.367,0.444,0.114,0.817,0.55,82.0,545.0
2015-05-02,Thimphu,Bhutan,89.6339,27.4712,[89.1339 26.9712 90.1339 27.9712],0.08,-0.05,0.525,0.394,0.453,0.136,0.889,0.604,74.0,551.0
2015-05-03,Thimphu,Bhutan,89.6339,27.4712,[89.1339 26.9712 90.1339 27.9712],0.08,-0.079,0.484,0.355,0.432,0.124,0.85,0.542,74.0,549.0
2015-05-04,Thimphu,Bhutan,89.6339,27.4712,[89.1339 26.9712 90.1339 27.9712],0.076,-0.079,0.401,0.328,0.442,0.103,0.817,0.538,81.0,574.0
2015-05-05,Thimphu,Bhutan,89.6339,27.4712,[89.1339 26.9712 90.1339 27.9712],0.068,-0.093,0.401,0.332,0.366,0.069,0.788,0.499,71.0,562.0
2015-05-06,Thimphu,Bhutan,89.6339,27.4712,[89.1339 26.9712 90.1339 27.9712],0.076,-0.079,0.484,0.341,0.326,0.062,0.793,0.492,81.0,562.0
2015-05-07,Thimphu,Bhutan,89.6339,27.4712,[89.1339 26.9712 90.1339 27.9712],0.086,-0.079,0.568,0.438,0.3,0.032,0.782,0.484,78.0,572.0
2015-05-08,Thimphu,Bhutan,89.6339,27.4712,[89.1339 26.9712 90.1339 27.9712],0.068,-0.093,0.525,0.404,0.255,0.036,0.721,0.471,85.0,553.0
2015-05-09,Thimphu,Bhutan,89.6339,27.4712,[89.1339 26.9712 90.1339 27.9712],0.104,-0.05,0.621,0.478,0.26,0.031,0.754,0.468,78.0,556.0
2015-05-10,Thimphu,Bhutan,89.6339,27.4712,[89.1339 26.9712 90.1339 27.9712],0.113,-0.05,0.621,0.521,0.249,0.005,0.696,0.44,78.0,551.0
2015-05-11,Thimphu,Bhutan,89.6339,27.4712,[89.1339 26.9712 90.1339 27.9712],0.113,-0.05,0.751,0.538,0.25,0.008,0.707,0.435,75.0,567.0
2015-05-12,Thimphu,Bhutan,89.6339,27.4712,[89.1339 26.9712 90.1339 27.9712],0.214,-0.01,0.621,0.608,0.274,0.014,0.67,0.441,65.0,559.0
2015-05-13,Thimphu,Bhutan,89.6339,27.4712,[89.1339 26.9712 90.1339 27.9712],0.214,-0.01,0.621,0.61,0.261,0.014,0.667,0.441,68.0,569.0
2015-05-14,Thimphu,Bhutan,89.6339,27.4712,[89.1339 26.9712 90.1339 27.9712],0.145,-0.018,0.568,0.567,0.252,0.024,0.65,0.43,69.0,569.0
2015-05-15,Thimphu,Bhutan,89.6339,27.4712,[89.1339 26.9712 90.1339 27.9712],0.155,-0.01,0.568,0.565,0.252,0.039,0.656,0.444,71.0,561.0
2015-05-16,Thimphu,Bhutan,89.6339,27.4712,[89.1339 26.9712 90.1339 27.9712],0.113,-0.099,0.416,0.339,0.257,0.018,0.63,0.378,57.0,566.0
2015-05-17,Thimphu,Bhutan,89.6339,27.4712,[89.1339 26.9712 90.1339 27.9712],0.113,-0.095,0.416,0.335,0.234,-0.025,0.485,0.245,59.0,553.0
2015-05-18,Thimphu,Bhutan,89.6339,27.4712,[89.1339 26.9712 90.1339 27.9712],0.215,-0.03,0.568,0.436,0.245,-0.005,0.485,0.25,51.0,511.0
2015-05-19,Thimphu,Bhutan,89.6339,27.4712,[89.1339 26.9712 90.1339 27.9712],0.236,-0.039,0.498,0.414,0.248,0.006,0.485,0.249,51.0,510.0
2015-05-20,Thimphu,Bhutan,89.6339,27.4712,[89.1339 26.9712 90.1339 27.9712],0.206,-0.06,0.463,0.393,0.243,-0.02,0.462,0.236,55.0,533.0
2015-05-21,Thimphu,Bhutan,89.6339,27.4712,[89.1339 26.9712 90.1339 27.9712],0.155,-0.099,0.361,0.384,0.248,-0.016,0.462,0.25,45.0,516.0
2015-05-22,Thimphu,Bhutan,89.6339,27.4712,[89.1339 26.9712 90.1339 27.9712],0.206,-0.099,0.388,0.29,0.285,-0.0,0.502,0.268,45.0,514.0
2015-05-23,Thimphu,Bhutan,89.6339,27.4712,[89.1339 26.9712 90.1339 27.9712],0.29,-0.039,0.498,0.357,0.319,0.033,0.539,0.285,39.0,519.0
2015-05-24,Thimphu,Bhutan,89.6339,27.4712,[89.1339 26.9712 90.1339 27.9712],0.211,-0.039,0.361,0.303,0.341,0.028,0.536,0.298,44.0,498.0
2015-05-25,Thimphu,Bhutan,89.6339,27.4712,[89.1339 26.9712 90.1339 27.9712],0.17,-0.095,0.347,0.191,0.343,0.034,0.533,0.286,41.0,499.0
2015-05-26,Thimphu,Bhutan,89.6339,27.4712,[89.1339 26.9712 90.1339 27.9712],0.322,-0.025,0.83,0.356,0.372,0.041,0.657,0.324,49.0,495.0
2015-05-27,Thimphu,Bhutan,89.6339,27.4712,[89.1339 26.9712 90.1339 27.9712],0.3,-0.025,0.83,0.342,0.381,0.083,0.643,0.332,50.0,512.0
2015-05-28,Thimphu,Bhutan,89.6339,27.4712,[89.1339 26.9712 90.1339 27.9712],0.241,-0.039,0.776,0.311,0.317,0.042,0.635,0.305,51.0,503.0
2015-05-29,Thimphu,Bhutan,89.6339,27.4712,[89.1339 26.9712 90.1339 27.9712],0.3,-0.039,0.83,0.329,0.338,0.034,0.653,0.32,48.0,513.0
2015-05-30,Thimphu,Bhutan,89.6339,27.4712,[89.1339 26.9712 90.1339 27.9712],0.285,-0.03,0.776,0.318,0.323,-0.005,0.622,0.306,50.0,510.0
2015-05-31,Thimphu,Bhutan,89.6339,27.4712,[89.1339 26.9712 90.1339 27.9712],0.322,0.056,0.913,0.444,0.323,0.008,0.68,0.35,60.0,499.0
2015-06-01,Thimphu,Bhutan,89.6339,27.4712,[89.1339 26.9712 90.1339 27.9712],0.322,0.002,0.913,0.44,0.326,-0.008,0.671,0.345,60.0,503.0
2015-06-02,Thimphu,Bhutan,89.6339,27.4712,[89.1339 26.9712 90.1339 27.9712],0.322,0.002,0.913,0.44,0.329,0.063,0.705,0.38,60.0,540.0
2015-06-03,Thimphu,Bhutan,89.6339,27.4712,[89.1339 26.9712 90.1339 27.9712],0.347,0.098,0.919,0.509,0.354,0.101,0.693,0.426,52.0,548.0
2015-06-04,Thimphu,Bhutan,89.6339,27.4712,[89.1339 26.9712 90.1339 27.9712],0.397,0.17,0.919,0.514,0.384,0.137,0.686,0.421,49.0,546.0
2015-06-05,Thimphu,Bhutan,89.6339,27.4712,[89.1339 26.9712 90.1339 27.9712],0.397,0.17,0.919,0.514,0.386,0.14,0.661,0.422,49.0,573.0
2015-06-06,Thimphu,Bhutan,89.6339,27.4712,[89.1339 26.9712 90.1339 27.9712],0.347,0.124,0.919,0.496,0.375,0.11,0.685,0.436,44.0,559.0
2015-06-07,Thimphu,Bhutan,89.6339,27.4712,[89.1339 26.9712 90.1339 27.9712],0.347,0.119,0.919,0.501,0.431,0.133,0.777,0.478,43.0,561.0
2015-06-08,Thimphu,Bhutan,89.6339,27.4712,[89.1339 26.9712 90.1339 27.9712],0.495,0.119,0.919,0.575,0.473,0.13,0.806,0.493,38.0,571.0
2015-06-09,Thimphu,Bhutan,89.6339,27.4712,[89.1339 26.9712 90.1339 27.9712],0.495,0.119,0.919,0.575,0.491,0.132,0.825,0.496,38.0,552.0
2015-06-10,Thimphu,Bhutan,89.6339,27.4712,[89.1339 26.9712 90.1339 27.9712],0.322,0.098,0.942,0.475,0.482,0.129,0.834,0.485,30.0,554.0
2015-06-11,Thimphu,Bhutan,89.6339,27.4712,[89.1339 26.9712 90.1339 27.9712],0.274,0.098,0.942,0.52,0.479,0.125,0.878,0.505,26.0,549.0
2015-06-12,Thimphu,Bhutan,89.6339,27.4712,[89.1339 26.9712 90.1339 27.9712],0.456,0.175,1.156,0.679,0.504,0.128,0.983,0.56,21.0,566.0
2015-06-13,Thimphu,Bhutan,89.6339,27.4712,[89.1339 26.9712 90.1339 27.9712],0.384,0.119,1.149,0.65,0.493,0.112,0.923,0.534,22.0,557.0
2015-06-14,Thimphu,Bhutan,89.6339,27.4712,[89.1339 26.9712 90.1339 27.9712],0.384,0.274,1.541,0.832,0.531,0.162,1.027,0.615,20.0,568.0
2015-06-15,Thimphu,Bhutan,89.6339,27.4712,[89.1339 26.9712 90.1339 27.9712],0.384,0.093,0.534,0.511,0.62,0.235,0.907,0.621,10.0,567.0
2015-06-16,Thimphu,Bhutan,89.6339,27.4712,[89.1339 26.9712 90.1339 27.9712],0.335,0.093,0.384,0.622,0.555,0.251,0.893,0.637,8.0,558.0
2015-06-17,Thimphu,Bhutan,89.6339,27.4712,[89.1339 26.9712 90.1339 27.9712],0.335,0.093,0.384,0.622,0.564,0.273,0.822,0.584,8.0,560.0
2015-06-18,Thimphu,Bhutan,89.6339,27.4712,[89.1339 26.9712 90.1339 27.9712],0.335,0.093,0.384,0.622,0.557,0.263,0.776,0.562,8.0,546.0
2015-06-19,Thimphu,Bhutan,89.6339,27.4712,[89.1339 26.9712 90.1339 27.9712],0.384,0.093,0.384,0.701,0.523,0.261,0.812,0.552,6.0,503.0
2015-06-20,Thimphu,Bhutan,89.6339,27.4712,[89.1339 26.9712 90.1339 27.9712],0.384,0.093,0.384,0.701,0.509,0.247,0.816,0.539,6.0,500.0
2015-06-21,Thimphu,Bhutan,89.6339,27.4712,[89.1339 26.9712 90.1339 27.9712],0.384,0.093,0.384,0.701,0.504,0.232,0.831,0.503,6.0,524.0
2015-06-22,Thimphu,Bhutan,89.6339,27.4712,[89.1339 26.9712 90.1339 27.9712],0.384,0.093,0.384,0.701,0.429,0.146,0.682,0.403,6.0,511.0
2015-06-23,Thimphu,Bhutan,89.6339,27.4712,[89.1339 26.9712 90.1339 27.9712],0.109,-0.01,0.384,0.403,0.396,0.134,0.636,0.382,13.0,508.0